Weather History for Melbourne, FL

Change the Weather History Date:

Friday, January 18, 2013

  Actual Average Record
Temperature  
Mean Temperature 58 °F 60 °F  
Max Temperature 71 °F 71 °F 85 °F (1960)
Min Temperature 44 °F 49 °F 24 °F (1977)
Degree Days  
Heating Degree Days 7 6  
Month to date heating degree days 8 108  
Since 1 July heating degree days 156 287  
Cooling Degree Days 0 1  
Month to date cooling degree days 73 21  
Year to date cooling degree days 73 21  
Growing Degree Days 7 (Base 50)    
Moisture  
Dew Point 48 °F    
Average Humidity 75    
Maximum Humidity 93    
Minimum Humidity 56    
Precipitation  
Precipitation 0.04 in 0.07 in 0.65 in (1994)
Month to date precipitation 1.40 1.27  
Year to date precipitation 1.40 1.27  
Sea Level Pressure  
Sea Level Pressure 30.21 in    
Wind  
Wind Speed 16 mph (North)    
Max Wind Speed 28 mph    
Max Gust Speed 35 mph    
Visibility 9 miles    
Events Rain    
T = Trace of Precipitation, MM = Missing Value Source: NWS Daily Summary

Daily Weather History Graph

Daily Weather History Graph

Search for Another Location

Airport:

Trip Planner

Search our weather history database for the weather conditions in past years. The results will help you decide how hot, cold, wet, or windy it might be!

Date:

Astronomy

Jan. 18, 2013 Rise Set
Actual Time 7:14 AM EST 5:51 PM EST
Civil Twilight 6:49 AM EST 6:16 PM EST
Nautical Twilight 6:21 AM EST 6:45 PM EST
Astronomical Twilight 5:52 AM EST 7:13 PM EST
Moon 11:34 AM EST (1/18) 12:00 AM EST (1/18)
Length of Visible Light 11h 27m
Length of Day
10h 36m
Waxing Crescent, 47% of the Moon is Illuminated
Jan 18
Waxing Crescent
Jan 18
First Quarter
Jan 26
Full
Feb 3
Last Quarter
Feb 10
New

Hourly Weather History & Observations

Time (EST) Temp. Windchill Dew Point Humidity Pressure Visibility Wind Dir Wind Speed Gust Speed Precip Events Conditions
12:53 AM 54.0 °F - 46.0 °F 75% 30.10 in 10.0 mi WNW 12.7 mph 21.9 mph N/A   Clear
1:53 AM 52.0 °F - 44.1 °F 74% 30.13 in 10.0 mi NW 17.3 mph - N/A   Partly Cloudy
2:26 AM 51.8 °F - 44.6 °F 76% 30.13 in 10.0 mi NW 12.7 mph - N/A   Mostly Cloudy
2:53 AM 51.1 °F - 41.0 °F 68% 30.14 in 10.0 mi WNW 19.6 mph - N/A   Overcast
3:28 AM 48.2 °F - 39.2 °F 71% 30.15 in 10.0 mi NW 12.7 mph - N/A   Scattered Clouds
3:53 AM 46.9 °F - 39.0 °F 74% 30.16 in 10.0 mi NW 13.8 mph - N/A   Clear
4:25 AM 46.4 °F 39.8 °F 37.4 °F 71% 30.16 in 10.0 mi NW 16.1 mph - N/A   Mostly Cloudy
4:53 AM 46.0 °F 39.0 °F 37.0 °F 71% 30.18 in 10.0 mi NNW 17.3 mph 24.2 mph N/A   Overcast
5:53 AM 44.1 °F 38.1 °F 36.0 °F 73% 30.19 in 10.0 mi NW 11.5 mph 20.7 mph N/A   Overcast
6:53 AM 45.0 °F 40.1 °F 37.0 °F 74% 30.22 in 10.0 mi NW 9.2 mph - N/A   Overcast
7:39 AM 44.6 °F 39.2 °F 37.4 °F 76% 30.23 in 10.0 mi WNW 10.4 mph - N/A   Overcast
7:53 AM 45.0 °F 39.7 °F 37.0 °F 74% 30.23 in 10.0 mi NW 10.4 mph - N/A   Overcast
8:53 AM 48.0 °F - 39.0 °F 71% 30.25 in 10.0 mi WNW 12.7 mph - N/A   Scattered Clouds
9:53 AM 55.0 °F - 43.0 °F 64% 30.26 in 10.0 mi NW 11.5 mph - N/A   Partly Cloudy
10:53 AM 61.0 °F - 46.9 °F 60% 30.25 in 10.0 mi NNW 11.5 mph - N/A   Partly Cloudy
11:53 AM 64.9 °F - 48.9 °F 56% 30.23 in 10.0 mi NNW 10.4 mph - N/A   Clear
12:53 PM 66.9 °F - 55.0 °F 66% 30.21 in 10.0 mi North 10.4 mph 20.7 mph N/A   Scattered Clouds
1:53 PM 70.0 °F - 55.0 °F 59% 30.19 in 10.0 mi NE 21.9 mph 26.5 mph N/A   Mostly Cloudy
2:53 PM 69.1 °F - 55.0 °F 61% 30.20 in 10.0 mi NE 20.7 mph 26.5 mph N/A   Mostly Cloudy
3:53 PM 69.1 °F - 55.9 °F 63% 30.21 in 10.0 mi NE 21.9 mph 25.3 mph N/A   Overcast
4:53 PM 64.9 °F - 59.0 °F 81% 30.22 in 10.0 mi NE 23.0 mph 28.8 mph 0.01 in   Mostly Cloudy
5:53 PM 63.0 °F - 60.1 °F 90% 30.24 in 3.0 mi NE 20.7 mph 26.5 mph 0.00 in   Mostly Cloudy
6:53 PM 64.9 °F - 59.0 °F 81% 30.25 in 3.0 mi NE 18.4 mph 26.5 mph 0.00 in   Haze
7:00 PM 64.4 °F - 59.0 °F 83% 30.25 in 8.0 mi East 17.3 mph 33.4 mph 0.00 in Rain Light Rain
7:53 PM 66.9 °F - 57.9 °F 73% 30.25 in 10.0 mi ENE 19.6 mph 27.6 mph 0.02 in   Overcast
8:53 PM 66.0 °F - 57.9 °F 75% 30.25 in 10.0 mi ENE 18.4 mph 31.1 mph N/A   Mostly Cloudy
9:53 PM 66.9 °F - 57.9 °F 73% 30.25 in 10.0 mi ENE 17.3 mph 27.6 mph N/A   Overcast
10:53 PM 66.0 °F - 57.0 °F 73% 30.25 in 10.0 mi ENE 16.1 mph 29.9 mph 0.01 in   Overcast
11:53 PM 66.9 °F - 57.9 °F 73% 30.24 in 10.0 mi ENE 20.7 mph 27.6 mph 0.00 in   Overcast